Tracking 20628 objects as of 7-Apr-2020
HD Live streaming from Space Station
objects crossing your sky now

SL-14 DEB

Track SL-14 DEB now!
10-day predictions


NORAD ID: 35521
Int'l Code: 1987-068CQ
Perigee: 938.7 km
Apogee: 951.7 km
Inclination: 82.6 °
Period: 103.8 minutes
Semi major axis: 7316 km
RCS: 0.0087 m2 (small)
Launch date: August 18, 1987
Source: Commonwealth of Independent States (former USSR) (CIS)
Launch site: PLESETSK MISSILE AND SPACE COMPLEX (PKMTR)

Note: This is SATELLITE DEBRIS
aabbcc
Your satellite tracking list
Your tracking list is empty




NASA's NSSDC Master Catalog

Two Line Element Set (TLE):
1 35521U 87068CQ  20098.77672595  .00000108  00000-0  79420-4 0  9997
2 35521  82.5532 275.7300 0008851 230.5837 143.2582 13.87312936786332
Source of the keplerian elements: AFSPC